Погода в Самсонове

Россия / Омская область     56°58′20″N   74°21′14″E
темп.,
°C
ветер,
м/с
пор.,
м/с
влажн.,
%
обл.,
%
осадки,
мм/ч
давл.,
гПа
погр.,
м
20 января, ср
ср2000:00−29сз22989 0.0 102819
03:00−30ссв11980 0.0 102819
06:00−30вюв119519 0.0 102919
09:00−30вюв229459 0.0 102820
12:00−26вюв369179 0.0 1028206
15:00−23вюв4791100 0.0 1026295
18:00−23вюв51089100 0.0 1024328
21:00−22вюв51193100 0.2 1021367
21 января, чт
чт2100:00−21вюв51198100 0.8 1018487
03:00−21юв51097100 0.4 1016452
06:00−20ююв41097100 0.8 1014360
09:00−19ю4998100 0.1 1012280
12:00−19юз51094100 0.2 1012429
15:00−18юз4994100 0.0 1012426
18:00−23юз3599100 0.0 101287
21:00−24юз239990 0.0 101164
22 января, пт
пт2200:00−24ююз249995 0.2 1011132
03:00−25юз239996 0.1 101143
06:00−26зюз239997 0.1 101040
09:00−28зюз239995 0.0 101132
12:00−27зюз249894 0.1 1012167
15:00−25юз259683 0.0 1013265
18:00−28з239886 0.0 101522
21:00−30з239913 0.0 101819
23 января, сб
сб2300:00−31зсз22997 0.0 102019
03:00−33зсз23990 0.0 102319
06:00−34сз23990 0.0 102521
09:00−35сз23980 0.0 102821
12:00−32сз24950 0.0 1030169
15:00−32зсз359347 0.0 1032297
18:00−36сз349725 0.0 103464
21:00−38сз23952 0.0 103631
24 января, вс
вс2400:00−40сз23962 0.0 103823
03:00−41сз239730 0.0 103921
06:00−42сз229735 0.0 104119
09:00−43зсз129741 0.0 104318
12:00−39зюз119441 0.0 1044112
15:00−36ююз129145 0.0 1044185
18:00−39ююв239431 0.0 104420
21:00−37ююв359685 0.0 1043134